This is the latest recevied weather packets stored in our database for station/object KF0EZB. If no packets are shown the sender has not sent any weather packets the latest 10 day(s).
| Time | Temp. | Humidity | Pressure | Rain* | Wind** | Luminosity | Snow |
|---|---|---|---|---|---|---|---|
| 1777825140 | 27.22° C | 20% | 1012.9 hPa | 0 mm | - | 737 W/m² | - |
| 1777824836 | 27.22° C | 22% | 1013.2 hPa | 0 mm | - | 774 W/m² | - |
| 1777824533 | 26.67° C | 22% | 1013.2 hPa | 0 mm | - | 772 W/m² | - |
| 1777824230 | 26.67° C | 21% | 1013.3 hPa | 0 mm | - | 738 W/m² | - |
| 1777823925 | 26.67° C | 24% | 1013 hPa | 0 mm | - | 738 W/m² | - |
| 1777823623 | 26.67° C | 24% | 1013 hPa | 0 mm | - | 719 W/m² | - |
| 1777823320 | 26.11° C | 26% | 1013.2 hPa | 0 mm | - | 664 W/m² | - |
| 1777823017 | 26.11° C | 25% | 1013 hPa | 0 mm | - | 629 W/m² | - |
| 1777822715 | 26.11° C | 26% | 1013.3 hPa | 0 mm | - | 629 W/m² | - |
| 1777822413 | 25.56° C | 28% | 1013.2 hPa | 0 mm | - | 650 W/m² | - |
| 1777822110 | 25.56° C | 28% | 1013.3 hPa | 0 mm | - | 658 W/m² | - |
| 1777821808 | 25° C | 30% | 1013.3 hPa | 0 mm | - | 643 W/m² | - |
| 1777821505 | 24.44° C | 31% | 1013.3 hPa | 0 mm | - | 625 W/m² | - |
| 1777821203 | 23.89° C | 32% | 1013.8 hPa | 0 mm | - | 619 W/m² | - |
| 1777820900 | 23.33° C | 32% | 1013.8 hPa | 0 mm | - | 629 W/m² | - |
| 1777820595 | 23.33° C | 32% | 1013.7 hPa | 0 mm | - | 617 W/m² | - |
| 1777820292 | 23.33° C | 36% | 1013.7 hPa | 0 mm | - | 575 W/m² | - |
| 1777819990 | 22.78° C | 36% | 1013.7 hPa | 0 mm | - | 554 W/m² | - |
| 1777819687 | 21.67° C | 37% | 1013.9 hPa | 0 mm | - | 567 W/m² | - |
| 1777819386 | 21.67° C | 38% | 1014 hPa | 0 mm | - | 548 W/m² | - |
| 1777819082 | 21.11° C | 40% | 1014 hPa | 0 mm | - | 507 W/m² | - |
| 1777818779 | 20.56° C | 40% | 1014.1 hPa | 0 mm | - | 498 W/m² | - |
| 1777818474 | 20° C | 41% | 1014.2 hPa | 0 mm | - | 466 W/m² | - |
| 1777818172 | 20° C | 42% | 1014.4 hPa | 0 mm | - | 416 W/m² | - |
| 1777817868 | 19.44° C | 44% | 1014.2 hPa | 0 mm | - | 385 W/m² | - |
* Rain latest hour (hover to see other rain measurements)
** Current wind speed in m/s (hover to see current wind gust speed)